Theta_e
325 326 326 326 326 327 328 329 328 327 327 327 327 327 327 326 323 323 324 325 325 326 323 322 322 322 321 321 321 320 319 319 318 319 318 318 317 317 316 315 314 314 314 313 313 313 312 311 312 313 313 312 312 312 311 312 312 312 312 311 310 312 311 310 307 307 311 314 314 313 314 315 313 315 314 315 316 318 317 320 321 321 321 321 322
324 325 325 325 324 324 325 326 328 328 328 327 327 327 326 324 326 325 323 325 324 325 323 323 322 322 321 320 321 320 319 318 318 318 316 317 317 317 315 314 314 314 314 313 313 312 312 311 310 312 312 310 311 310 310 310 310 309 309 311 310 310 311 308 307 306 306 310 310 312 312 314 310 313 313 314 316 317 315 316 316 317 316 317 317
324 325 325 325 324 325 326 325 325 326 327 327 327 327 326 327 325 324 325 323 324 324 323 323 323 322 321 321 320 320 319 318 319 318 316 317 316 316 315 314 313 313 312 312 311 313 312 312 311 312 313 312 312 312 312 311 311 309 310 310 309 310 310 310 308 306 306 306 309 308 309 311 312 311 313 313 313 313 312 313 313 313 314 316 316
322 323 323 324 324 325 325 325 325 325 324 324 323 321 326 327 325 324 325 323 323 324 324 323 323 323 322 321 321 320 319 319 318 317 316 316 315 314 314 314 314 313 313 312 310 311 311 311 311 311 311 310 311 310 310 311 311 310 310 310 310 309 311 312 312 310 309 307 309 309 310 310 310 311 311 311 311 311 312 312 313 313 313 313 314
322 322 322 323 324 324 325 325 325 327 327 326 327 326 325 325 326 323 325 324 323 325 324 322 323 322 322 321 321 320 320 319 318 317 317 317 315 315 314 313 313 313 312 312 313 310 310 309 309 309 309 308 309 309 310 310 308 308 308 308 307 308 309 309 309 309 308 307 308 309 310 310 310 311 311 309 309 310 311 310 311 311 313 314 314
316 317 321 323 323 323 324 325 326 327 327 328 326 324 324 325 325 324 323 324 322 322 323 323 322 322 322 322 322 321 321 320 318 317 317 316 316 315 314 314 313 312 312 312 310 310 310 308 308 308 308 307 307 308 308 308 308 308 307 307 307 307 307 307 307 307 306 305 306 306 309 308 308 309 310 310 309 308 309 310 311 311 311 311 313
312 313 314 316 318 320 323 324 324 324 324 325 326 325 325 327 326 324 323 323 322 320 321 322 322 323 322 323 322 322 321 320 319 318 317 316 315 314 314 314 313 313 312 310 310 309 308 307 308 307 307 306 306 306 307 307 307 307 307 307 308 308 307 307 307 307 306 305 306 306 306 308 308 307 309 310 309 309 308 307 308 310 312 312 313
312 312 313 313 312 313 315 316 318 321 323 325 325 326 325 326 326 326 324 324 322 322 321 320 322 321 323 323 322 322 321 320 319 318 317 317 315 314 313 313 312 312 311 309 309 308 307 307 306 306 306 306 306 305 303 302 303 303 303 304 304 304 304 304 304 304 305 305 304 304 305 305 306 308 308 308 307 308 308 309 308 310 312 313 313
310 310 311 312 312 313 314 315 315 316 317 319 321 323 325 326 325 325 324 325 324 324 323 323 323 323 323 323 322 322 321 320 319 318 317 316 315 314 314 313 312 311 309 308 308 307 307 307 307 306 306 300 296 298 299 299 299 298 300 301 302 302 302 303 303 303 304 304 304 305 304 304 305 306 306 306 306 306 310 310 309 309 308 308 310
309 308 308 309 310 311 312 314 314 314 315 315 316 318 320 321 322 324 324 324 324 323 323 324 323 323 323 323 322 322 322 321 315 307 309 315 315 314 314 313 311 310 308 307 307 307 306 307 307 306 301 299 297 295 293 294 296 299 299 300 300 300 301 301 301 301 301 301 301 302 302 302 303 304 305 306 307 308 307 307 306 307 308 308 310
308 307 307 308 309 309 309 310 312 312 314 315 314 315 315 318 320 321 322 323 324 324 323 322 323 322 322 321 320 321 320 319 302 299 301 303 313 315 313 311 310 309 308 307 306 306 306 305 306 305 302 301 301 295 294 293 293 294 294 296 298 299 298 297 298 300 299 299 300 300 300 300 302 304 304 305 306 307 306 307 306 306 304 303 303
308 308 308 307 307 307 308 309 309 310 311 312 314 315 315 315 316 318 320 321 321 323 323 322 322 323 323 322 320 321 320 303 297 299 299 299 304 313 311 310 309 308 307 306 306 305 305 305 305 306 305 305 304 304 298 294 293 293 292 293 293 293 294 297 297 297 298 298 298 299 300 301 302 304 304 305 305 306 307 307 306 305 304 303 303
307 308 308 308 307 308 307 308 308 309 310 310 311 313 313 315 315 315 317 320 321 320 320 321 321 322 321 320 319 319 318 296 296 296 296 296 298 305 310 309 308 307 306 306 305 304 304 304 304 305 305 305 301 301 302 303 296 292 294 293 293 292 291 290 292 298 299 297 297 297 298 299 299 301 304 304 305 303 304 303 304 304 303 302 302
307 306 307 308 308 308 308 308 308 308 309 310 311 310 311 312 314 317 318 318 319 319 320 320 321 321 320 320 318 318 314 296 294 295 294 294 293 299 310 308 307 306 305 305 304 304 303 303 302 303 303 304 303 303 302 302 302 302 301 302 302 300 293 291 291 291 294 298 298 297 299 301 299 301 303 303 302 301 301 301 302 302 302 302 305
306 307 307 307 308 308 308 308 308 308 309 309 310 310 311 312 312 314 315 316 317 318 319 319 319 320 320 319 318 318 307 294 293 293 293 292 291 296 307 306 304 304 304 304 303 303 303 303 302 301 302 302 303 301 301 300 299 299 299 299 300 301 302 302 300 299 298 298 299 300 300 301 301 302 302 302 301 301 301 300 300 301 301 303 303
306 306 306 306 307 308 309 309 309 308 308 309 309 309 310 312 313 314 314 314 316 317 317 318 319 319 319 318 318 307 302 292 292 292 292 291 291 303 304 303 301 302 302 303 303 304 304 303 303 302 303 303 296 290 295 299 298 297 297 298 299 300 301 299 298 298 302 302 301 301 302 302 297 300 299 298 298 299 299 299 300 299 299 297 297
305 306 306 306 306 307 308 308 308 309 308 308 308 309 310 311 312 314 314 314 314 315 316 316 317 318 318 317 315 304 300 293 291 291 291 290 294 302 303 301 301 301 302 303 303 304 304 303 303 302 303 303 294 289 289 293 297 297 296 297 298 298 298 301 297 294 293 294 294 293 293 292 292 292 292 291 294 296 296 295 294 297 296 294 295
305 306 306 306 307 308 308 307 307 307 307 307 307 309 310 311 311 313 313 313 313 314 315 315 316 317 317 317 311 303 299 294 290 291 290 290 296 301 301 300 300 301 301 303 303 303 303 304 303 301 300 302 290 289 288 294 297 296 296 295 296 296 296 298 299 300 295 293 292 292 292 292 292 292 292 292 292 293 295 292 294 296 294 295 293
306 305 306 306 306 307 308 308 308 308 308 307 308 308 309 311 311 312 313 314 314 314 314 314 315 316 316 313 301 301 298 293 290 290 290 290 295 302 300 299 299 300 300 300 302 303 302 302 300 299 300 297 288 289 288 293 296 296 296 295 294 293 295 297 296 297 298 298 299 300 298 296 297 298 298 294 293 294 296 295 296 294 293 293 294
306 307 306 306 307 307 308 308 308 309 309 309 310 310 310 311 311 312 313 312 312 313 312 313 314 310 305 302 301 299 296 294 293 289 290 290 289 296 300 298 298 298 299 299 300 301 300 300 299 291 290 288 288 288 288 288 293 295 295 294 293 292 295 295 295 294 294 293 294 295 295 296 297 298 298 298 298 298 296 297 297 296 294 293 294
307 306 306 306 306 306 307 307 308 309 309 309 310 310 311 311 312 312 312 312 311 311 312 313 311 304 302 300 298 297 296 295 293 290 290 290 288 292 298 298 298 298 298 298 298 297 297 298 299 289 288 288 288 287 288 288 289 291 292 292 293 293 291 291 291 291 292 292 292 292 293 293 294 295 295 296 296 297 297 297 296 297 295 294 293
306 306 305 305 306 306 307 308 309 310 310 310 310 311 311 312 312 312 310 311 312 312 309 307 304 302 301 299 298 297 297 295 293 290 290 289 289 288 296 298 296 296 294 295 295 296 297 297 298 290 287 287 288 288 288 288 288 290 291 289 288 287 290 290 290 290 289 290 290 290 291 291 292 294 294 295 296 296 297 297 297 297 297 296 295
305 305 305 305 305 306 307 308 308 310 310 311 310 310 311 311 312 312 312 311 309 308 306 303 300 299 299 299 299 298 296 294 292 293 289 289 289 289 287 293 289 295 293 294 295 296 298 299 299 290 289 288 288 288 288 288 288 291 288 288 288 287 288 290 289 289 289 289 289 289 290 291 291 292 293 294 295 296 296 297 297 297 297 298 297
304 304 304 304 305 305 306 307 308 309 309 309 309 309 309 310 310 310 310 309 306 305 304 301 299 298 297 297 298 297 295 294 292 291 291 289 289 289 288 287 289 294 296 296 296 297 298 299 296 289 289 289 288 288 288 288 290 288 288 287 287 288 290 290 289 289 288 288 288 288 289 290 291 291 292 294 294 295 296 297 297 297 297 297 297
304 303 304 304 305 305 306 307 308 308 309 309 308 307 308 309 308 308 307 307 305 303 302 301 299 298 298 297 296 297 297 295 295 292 290 289 289 288 288 288 287 287 293 297 297 298 293 290 289 289 289 288 288 288 288 288 287 287 287 287 288 291 290 290 290 290 288 288 288 289 289 290 291 291 293 294 295 295 295 295 296 296 296 296 296
303 303 304 304 305 305 305 306 306 307 307 307 307 308 308 306 306 306 306 305 304 302 301 300 298 297 296 297 296 296 296 295 295 294 292 291 290 288 288 288 288 288 291 294 292 290 289 288 288 287 288 289 292 294 293 293 289 288 288 288 292 291 291 290 290 289 289 289 289 288 290 291 291 293 293 294 293 292 293 293 294 294 294 294 294
303 303 304 304 305 305 305 304 304 305 307 307 308 308 307 306 305 303 303 303 302 301 299 297 296 296 295 295 295 295 296 296 295 295 294 294 294 293 291 292 289 288 291 295 294 296 296 292 292 290 290 289 289 288 289 289 290 292 292 293 292 292 292 292 291 290 290 289 289 290 291 292 293 293 291 292 291 292 293 292 292 292 293 293 292
302 303 304 304 304 304 304 296 301 305 306 308 308 306 306 305 303 301 301 301 300 299 297 296 296 296 295 296 295 294 294 295 295 295 295 295 295 296 297 296 296 296 295 294 293 293 292 290 291 295 296 296 295 294 293 293 291 291 292 292 292 291 291 291 291 291 291 291 290 290 290 291 290 291 291 291 291 292 293 292 292 291 292 292 290
302 304 304 304 303 303 304 304 306 306 307 307 305 304 304 304 302 302 304 303 302 300 296 296 296 296 295 296 294 293 294 294 292 289 290 288 289 292 293 292 292 293 291 287 290 292 292 293 292 293 293 291 290 290 291 291 290 291 291 291 291 291 291 290 290 290 290 290 289 289 289 290 290 290 291 290 291 291 292 292 292 291 292 291 289
304 303 304 303 303 304 304 304 305 305 305 300 298 295 288 290 298 299 296 291 291 291 293 297 297 297 295 295 296 294 292 291 287 287 288 288 287 286 287 286 287 289 288 286 288 289 290 291 292 291 291 291 290 289 289 289 289 289 289 289 289 289 289 289 289 289 289 289 289 288 288 288 288 289 289 289 289 290 291 290 290 291 289 289 288
302 304 303 304 302 305 305 305 303 303 302 300 298 295 294 292 288 289 291 290 290 289 289 290 291 291 292 290 288 287 287 287 287 287 287 287 287 287 287 287 287 287 287 288 289 290 291 290 291 291 290 290 289 289 289 288 288 288 288 288 289 289 288 289 289 289 288 288 288 288 288 287 287 287 287 288 288 288 289 289 290 289 289 288 287
303 303 303 304 303 301 304 304 303 301 300 299 297 294 293 291 291 288 288 289 289 288 288 288 289 289 289 290 290 289 287 287 287 287 287 286 287 287 287 286 286 286 286 286 287 289 291 290 290 290 290 288 288 288 289 288 288 287 287 287 287 288 288 288 288 289 288 288 287 287 287 287 287 287 287 287 287 287 288 287 288 288 288 288 288
303 303 304 304 304 299 303 301 300 298 298 297 296 295 293 292 291 290 290 288 287 288 287 288 288 288 288 288 289 289 289 288 287 287 287 287 287 286 287 287 287 286 286 287 288 290 291 290 289 289 289 288 288 288 288 288 288 287 287 287 287 288 288 289 288 288 287 287 287 287 287 286 286 286 286 287 286 286 287 287 287 288 288 287 287
303 304 304 304 304 303 301 300 298 298 296 295 293 293 294 294 292 291 290 290 291 289 288 287 287 287 287 288 288 288 287 287 287 287 287 287 286 287 286 288 288 287 288 290 290 290 290 290 289 289 289 289 289 288 287 288 288 288 287 288 288 288 288 289 288 287 287 287 286 286 287 287 287 286 286 286 287 287 286 286 287 287 287 287 287
303 295 291 295 302 300 300 298 297 296 295 293 293 293 294 294 293 291 290 289 288 288 289 290 289 288 289 289 287 287 287 287 287 287 287 287 287 287 287 288 291 291 290 292 291 291 289 289 289 289 289 288 288 288 287 288 288 287 287 287 287 287 287 287 287 287 287 287 286 286 286 286 287 287 286 286 286 286 286 287 287 287 287 287 287
299 298 297 296 297 297 297 297 296 294 294 294 295 293 292 293 293 292 292 292 290 290 290 290 291 288 287 288 286 287 287 286 287 287 287 287 287 287 289 292 292 291 290 291 291 290 290 290 289 289 289 289 288 288 288 288 287 287 288 287 286 286 286 286 286 286 286 286 286 286 286 286 286 286 286 286 286 286 286 286 286 287 287 287 287
297 297 297 296 296 296 296 296 295 294 291 291 292 293 293 293 293 292 292 292 291 292 291 291 291 290 289 290 287 286 286 287 286 287 287 287 287 288 291 293 292 291 290 290 290 290 289 289 289 289 288 288 288 288 287 287 287 287 287 287 287 286 286 286 286 286 286 286 286 286 286 286 286 287 286 285 286 286 286 286 286 287 287 287 286
296 296 296 296 296 296 296 295 292 289 291 292 293 293 292 293 293 293 292 292 292 291 290 291 289 290 289 291 291 290 290 287 286 287 288 288 288 290 293 293 292 291 290 290 290 290 289 289 289 288 288 288 288 288 287 287 287 287 287 287 287 286 286 286 286 286 286 286 286 286 286 286 286 286 286 285 285 286 286 286 287 287 286 286 286
295 290 289 290 291 295 293 292 292 293 293 293 293 292 291 292 291 292 293 293 292 292 292 292 291 292 293 294 293 293 291 291 290 290 290 292 293 294 293 293 292 291 290 290 290 290 289 289 288 288 288 288 287 287 287 287 287 287 287 286 286 286 286 286 286 286 286 286 286 286 286 286 286 286 286 286 286 286 286 286 286 286 286 286 287
295 295 292 290 292 292 293 292 293 293 293 294 293 293 293 292 292 292 293 293 293 293 293 293 292 296 295 295 293 293 293 293 294 294 293 293 293 293 293 292 292 291 290 290 290 290 289 288 289 288 288 288 288 287 287 287 287 286 287 286 286 285 285 286 286 285 285 285 286 286 286 286 286 286 286 287 287 287 287 286 286 287 287 287 287
295 295 291 291 291 294 294 294 293 294 294 295 294 295 293 293 294 293 294 293 294 293 293 296 295 293 290 286 283 285 292 292 292 294 293 293 293 292 292 293 292 291 291 290 290 290 289 289 289 288 288 288 287 287 287 287 286 286 286 286 286 285 285 286 286 285 285 285 285 285 286 286 286 286 285 286 287 287 287 287 287 287 287 287 288
295 295 295 294 294 295 295 294 294 295 294 294 295 294 294 294 294 294 293 293 293 293 294 295 296 292 286 282 285 282 291 295 294 292 292 293 292 291 292 292 293 292 291 291 290 289 289 288 288 288 288 288 287 287 287 286 286 286 285 285 285 285 285 285 285 285 285 285 285 286 286 286 286 286 286 286 287 288 288 288 288 288 288 288 288
296 296 296 295 296 295 294 295 296 296 295 295 295 293 293 296 295 296 294 294 294 294 294 294 294 295 291 288 289 286 293 295 292 293 293 292 292 291 291 293 292 292 291 291 291 291 290 289 288 288 288 288 288 287 287 286 286 286 285 285 285 285 285 285 285 285 285 285 285 285 286 286 286 287 287 288 289 289 289 288 289 289 289 289 289
295 295 295 295 295 295 294 295 293 293 293 292 292 294 296 296 295 295 294 294 292 293 293 294 293 293 292 291 290 292 293 293 293 293 292 291 292 291 292 292 292 291 291 291 291 290 290 289 289 289 288 288 288 288 288 287 287 286 285 285 285 285 285 285 285 285 285 285 285 285 286 286 286 287 287 288 289 288 288 288 289 289 289 289 288
296 295 295 295 296 295 295 295 294 294 293 293 293 293 294 295 294 293 293 293 292 293 293 293 293 293 292 292 292 292 293 293 291 291 291 291 291 291 292 291 290 290 290 290 290 290 289 289 289 288 288 288 288 288 288 287 287 287 286 285 285 284 285 285 285 285 286 285 285 286 286 286 286 287 288 288 288 288 288 288 288 287 288 288 287
295 295 295 295 294 294 295 294 294 295 294 294 293 293 293 293 293 292 292 292 292 293 293 293 293 292 292 292 292 292 291 290 290 291 291 291 291 291 291 290 289 289 290 291 290 289 290 289 289 288 288 288 288 288 288 287 287 287 286 286 286 285 286 286 286 286 286 286 286 286 286 286 286 286 286 287 287 288 288 288 288 288 288 287 287
295 294 293 293 292 292 292 293 292 292 292 291 291 291 292 292 292 291 289 290 291 291 292 291 292 291 291 291 291 290 290 290 289 290 290 289 289 289 289 288 288 289 290 290 289 290 289 289 289 288 288 288 288 287 287 287 287 287 287 286 286 286 286 286 286 286 287 287 287 287 286 286 286 287 288 288 288 288 288 288 288 287 287 287 287
294 293 293 293 293 293 293 293 291 289 291 291 290 290 290 291 292 291 292 291 291 291 291 292 291 291 290 290 291 291 290 289 290 290 290 291 291 290 288 287 287 288 289 290 289 289 289 289 289 289 288 288 287 287 287 287 287 287 287 287 286 286 286 286 286 287 287 288 288 288 287 287 288 287 288 288 288 288 288 288 287 287 287 287 287
293 292 292 292 292 292 292 292 291 292 292 291 290 290 290 291 291 291 291 291 291 291 291 291 291 291 290 290 289 290 289 289 289 289 290 290 289 289 288 287 286 287 289 289 289 289 289 289 289 289 289 288 288 287 287 287 287 287 286 286 286 285 286 286 287 287 287 288 289 288 288 288 287 287 287 287 287 288 288 288 287 287 287 286 287
292 292 292 292 291 292 292 292 292 292 292 291 290 290 289 290 290 290 290 290 290 290 290 291 290 290 289 289 288 288 287 288 288 288 288 289 288 287 286 286 286 287 288 289 289 289 289 289 289 289 289 289 288 287 287 287 287 286 286 286 285 285 286 286 287 287 288 288 288 288 288 288 287 287 287 287 287 287 287 287 287 287 287 287 286
290 291 291 292 292 292 292 291 291 291 291 290 290 290 289 289 288 288 288 288 288 288 288 289 289 288 288 288 287 288 287 287 287 287 287 287 287 286 285 286 286 287 288 289 289 289 289 289 290 289 289 289 289 288 288 288 287 286 286 285 285 285 286 287 287 287 287 287 288 288 288 287 287 287 287 287 287 287 286 286 286 287 287 287 287
Wind_Speed
5 5 5 6 6 6 6 7 9 8 9 9 8 9 7 7 8 8 8 9 9 11 11 12 12 11 11 10 10 9 9 8 7 6 6 6 5 4 5 5 5 4 3 3 2 2 2 2 2 2 1 4 4 3 3 3 4 4 4 4 4 4 5 5 7 8 7 6 7 7 8 8 9 8 9 8 8 7 8 8 9 8 9 9 9
4 4 4 3 3 5 7 8 7 7 8 8 9 8 7 8 5 8 9 8 9 10 12 11 11 12 11 12 11 11 10 10 9 8 7 7 6 5 5 6 5 4 4 4 4 1 1 3 2 0 2 4 4 6 5 4 4 5 4 3 4 4 4 6 7 8 9 7 8 8 8 8 9 8 9 8 8 8 10 9 9 9 9 9 9
3 4 4 5 6 4 4 7 8 9 9 8 9 9 7 7 8 8 8 8 9 10 11 11 12 12 12 12 12 11 11 11 10 9 8 9 8 7 6 6 5 5 5 4 4 4 3 3 3 2 2 4 4 5 5 5 5 5 5 5 6 6 6 6 7 8 9 8 7 9 8 7 7 8 9 9 10 10 10 10 9 9 9 9 9
1 2 3 4 5 5 6 6 8 8 7 7 8 10 10 8 7 8 10 7 10 9 10 11 12 12 12 12 13 12 12 11 11 10 10 10 9 9 8 7 6 6 5 5 4 3 3 2 2 3 3 4 4 4 5 5 4 5 6 6 6 6 5 5 7 7 8 9 7 8 7 8 8 9 9 9 10 9 9 9 9 10 10 9 10
4 2 3 2 1 4 5 5 5 6 5 4 2 3 7 9 8 8 8 8 7 8 9 11 12 13 12 13 13 13 13 13 12 11 10 10 10 9 9 8 7 7 6 5 3 3 3 3 3 2 2 4 4 4 4 5 6 7 7 7 7 6 6 6 7 7 8 10 9 8 9 9 9 9 9 10 9 9 9 9 9 9 9 9 9
6 6 3 2 3 3 4 6 6 7 7 6 6 9 11 9 9 6 7 8 8 9 11 11 11 13 13 13 13 13 12 12 12 12 11 11 10 9 9 8 8 8 7 6 6 5 4 3 3 3 3 3 3 4 4 6 6 7 8 8 8 8 8 9 8 9 10 10 10 10 8 9 9 8 9 9 9 9 9 9 9 9 9 9 9
6 5 4 3 2 2 3 3 4 3 3 4 4 6 7 8 6 8 10 11 10 10 11 12 12 12 13 13 13 13 13 12 12 12 12 11 11 11 10 9 8 7 7 7 6 5 4 4 3 3 3 3 3 4 4 5 5 7 7 8 8 8 8 8 8 9 9 10 10 10 10 9 9 9 8 8 9 9 9 9 9 8 7 7 7
5 4 3 2 2 1 1 1 1 2 3 5 5 6 8 10 10 11 12 12 13 12 12 14 12 14 13 13 13 12 12 12 13 12 12 12 11 11 10 9 9 8 7 7 6 5 5 4 5 4 4 2 2 4 5 5 5 7 7 7 8 9 9 9 9 9 9 9 9 9 9 9 8 9 9 9 9 9 8 8 8 7 7 7 8
3 2 2 1 2 2 2 1 1 2 3 3 3 5 7 8 9 11 11 9 8 10 12 12 13 13 13 13 14 13 12 12 12 11 11 12 11 11 10 10 9 8 8 7 7 6 6 6 5 5 4 7 4 2 5 5 5 6 7 7 8 9 9 9 9 9 9 9 10 9 9 9 9 8 8 8 8 8 7 7 9 9 10 10 10
2 2 2 2 1 2 3 3 3 3 3 4 4 5 5 6 7 8 8 9 8 9 12 11 12 12 14 13 13 12 10 10 9 13 13 11 12 10 10 10 9 9 8 7 7 7 6 5 5 8 8 4 5 8 10 9 8 7 7 7 8 9 9 10 9 9 10 10 10 10 10 10 9 9 9 9 9 9 10 9 10 9 9 10 9
2 2 2 2 3 3 3 2 3 4 4 4 5 5 6 5 6 6 7 8 9 10 11 12 11 11 12 12 11 11 10 6 9 12 13 13 11 10 10 9 9 8 8 7 7 7 6 6 4 9 9 9 10 12 11 12 12 12 13 12 10 8 9 10 10 10 10 10 10 11 11 12 11 11 10 10 9 9 9 9 9 9 9 10 10
2 2 3 3 4 4 3 4 4 4 4 5 5 5 6 6 6 7 7 8 8 8 10 10 10 10 7 7 9 2 2 7 15 14 13 12 9 9 8 8 8 7 7 7 6 5 5 4 4 3 5 6 5 7 12 15 15 15 15 14 14 15 13 11 11 11 10 11 11 11 11 11 11 9 9 9 9 9 9 9 9 9 10 10 10
3 3 3 4 4 4 5 5 5 5 5 6 6 5 6 6 7 7 8 7 7 8 9 10 10 11 10 11 9 6 6 10 12 12 12 11 10 9 8 7 7 7 7 7 5 4 3 4 4 4 4 8 7 9 8 7 14 17 15 16 16 16 16 18 18 14 11 12 12 13 12 12 13 11 10 11 10 11 10 10 10 10 11 12 11
3 3 4 4 4 4 5 5 5 5 6 6 6 6 7 7 6 6 7 7 7 8 9 10 10 10 10 10 10 9 6 12 14 12 12 11 8 4 6 7 6 6 6 5 5 5 5 5 4 4 5 6 6 7 7 6 7 5 7 9 10 14 19 20 19 20 18 13 13 13 11 11 12 12 12 12 12 12 11 12 12 12 12 12 12
4 4 5 5 5 5 5 5 5 6 6 7 7 8 8 7 7 7 7 7 8 8 8 9 9 10 10 9 8 7 8 15 15 13 12 10 7 0 2 6 4 4 4 5 5 5 4 5 5 6 7 7 5 3 5 8 8 8 9 11 11 12 10 10 13 13 12 12 14 14 14 13 13 14 12 9 8 8 9 11 11 11 12 14 14
6 5 5 6 6 5 5 5 6 6 7 7 7 8 8 7 8 7 7 7 8 8 8 8 8 10 10 9 7 8 8 14 14 14 12 10 7 3 4 5 3 3 5 5 5 5 5 6 7 7 7 8 5 8 3 4 8 10 11 11 12 11 11 11 12 12 12 13 13 13 12 12 9 9 9 10 11 11 11 11 11 11 12 13 14
6 5 6 6 6 6 6 6 6 6 7 7 8 8 8 8 8 7 8 8 8 8 8 8 8 8 10 10 7 8 10 10 13 13 12 11 6 4 5 5 5 6 5 5 5 6 6 6 7 7 6 7 7 9 8 2 6 10 11 12 11 11 11 10 11 14 16 17 19 21 21 21 20 17 14 12 10 10 11 13 13 11 14 15 13
6 7 7 7 6 6 6 7 7 7 7 8 8 8 8 7 8 7 8 8 8 8 8 8 7 7 7 9 9 10 11 9 12 12 12 12 6 5 5 5 5 4 4 5 5 5 6 5 5 9 9 8 9 8 9 4 7 10 11 12 12 12 11 10 10 9 12 15 19 20 20 18 19 19 18 16 15 10 10 14 12 13 16 14 15
8 8 8 8 8 8 7 8 7 7 8 8 8 8 8 8 8 8 8 8 8 8 7 7 6 7 7 4 13 13 11 9 10 11 11 10 3 2 4 4 4 4 4 4 4 5 5 5 10 10 11 4 11 7 6 3 8 9 11 11 12 14 12 11 11 13 12 12 10 9 10 13 12 12 13 16 17 14 13 14 11 12 17 16 15
9 9 9 9 8 8 8 8 8 8 8 8 8 8 8 8 9 8 8 7 7 7 7 6 4 6 7 8 7 9 10 7 9 10 9 6 3 5 3 1 2 2 3 4 5 5 6 7 7 1 3 11 9 9 7 6 6 8 9 11 13 14 11 12 12 12 13 12 12 13 14 14 13 12 12 13 12 14 15 14 14 13 15 16 15
10 10 10 10 10 10 10 9 9 9 9 8 8 8 8 8 8 8 8 8 8 8 6 4 6 7 8 7 8 8 8 10 8 9 7 5 4 4 1 1 2 3 2 4 5 6 6 7 3 10 12 10 9 3 2 2 5 8 9 11 12 11 12 12 14 16 16 15 15 14 13 12 13 13 13 13 13 13 12 13 13 14 14 14 14
10 11 11 11 11 11 10 10 9 8 8 8 9 9 8 9 8 9 8 7 1 3 7 6 7 7 7 7 8 8 8 10 8 7 8 5 4 3 2 4 5 4 4 6 7 6 7 7 2 9 10 6 4 5 7 8 9 9 11 13 13 13 13 13 14 13 12 12 12 12 12 11 11 11 12 12 13 13 13 13 13 14 14 14 14
11 12 12 12 11 11 11 11 10 8 8 9 9 9 8 8 9 6 3 5 2 2 5 7 7 7 7 7 7 7 8 7 10 8 8 7 5 2 1 2 5 3 5 6 7 7 7 7 3 7 8 7 9 9 10 11 10 9 10 10 11 13 11 12 13 13 13 12 12 12 12 12 12 12 12 12 12 12 12 12 13 14 13 13 15
12 12 12 12 12 11 11 11 10 10 10 10 10 10 9 8 8 4 4 4 4 6 6 7 8 8 8 7 7 7 6 6 7 9 7 7 6 7 6 2 2 4 4 6 7 7 7 6 8 15 12 13 11 12 12 12 11 13 15 15 15 14 10 12 12 12 12 12 12 12 12 11 12 12 12 12 12 12 12 12 13 14 14 14 15
13 13 13 13 12 11 11 11 11 10 10 10 10 9 9 6 4 2 3 3 5 7 8 8 8 8 8 8 7 7 6 6 6 7 10 9 10 9 8 8 8 7 5 5 6 6 6 7 8 8 7 9 13 15 14 15 18 18 17 17 14 9 10 10 11 11 12 12 12 12 12 11 12 12 12 12 12 12 11 10 10 11 12 13 13
13 13 13 12 12 13 13 12 12 12 11 10 10 8 3 3 5 5 5 6 8 9 10 9 8 8 8 8 8 8 8 6 6 6 7 8 8 10 12 12 10 11 12 8 9 11 12 13 14 14 15 14 11 8 9 10 10 13 14 14 10 10 9 9 10 10 11 12 11 11 11 11 10 11 12 11 11 11 11 11 11 11 11 11 11
13 13 13 13 13 13 13 12 11 11 11 9 6 3 4 5 5 5 6 8 9 7 8 9 9 9 8 8 8 8 8 7 6 6 7 6 7 8 9 8 11 10 9 8 9 7 6 6 8 12 15 17 16 14 13 12 10 10 8 8 8 9 10 10 11 11 11 11 10 11 11 11 11 10 11 10 10 10 10 10 11 11 10 10 11
14 14 14 13 12 12 12 10 10 10 9 4 3 4 4 4 6 6 7 8 9 10 9 9 9 9 9 7 7 7 6 6 5 3 3 4 4 3 2 3 2 3 5 8 9 9 9 9 11 10 7 7 7 6 8 8 8 9 10 10 10 10 11 12 13 13 13 13 13 13 12 12 12 12 10 10 10 9 9 10 10 11 9 9 9
15 15 14 13 13 12 11 10 9 9 4 3 5 4 1 5 4 5 5 6 9 10 9 9 9 9 8 8 8 7 6 5 4 5 6 5 4 4 5 5 6 6 7 8 8 8 7 7 5 7 7 8 7 7 9 9 8 9 11 11 10 10 10 10 11 11 11 11 10 10 8 10 10 9 10 11 11 11 10 10 11 10 7 7 9
14 14 14 13 13 11 10 9 9 4 5 6 7 7 12 14 5 6 6 12 14 11 8 8 8 7 8 6 2 5 5 5 5 8 8 7 5 4 3 4 4 5 7 10 7 5 6 6 6 7 8 8 9 8 9 8 9 9 9 9 9 10 10 10 11 12 11 10 10 9 8 8 9 11 11 11 12 12 11 9 8 7 8 9 10
12 12 12 12 12 10 2 3 5 6 8 8 8 9 7 10 15 11 10 11 14 14 13 15 16 13 10 7 9 15 13 10 9 8 6 4 3 3 3 5 5 6 8 6 5 4 5 7 7 8 8 8 8 9 9 9 10 10 10 10 9 9 7 9 10 9 9 9 8 8 8 8 10 10 10 10 9 11 10 7 8 8 10 10 9
12 11 11 10 10 8 5 6 8 9 9 9 10 9 9 8 7 12 14 15 16 16 15 14 14 14 14 12 9 6 9 10 8 5 4 2 4 5 6 6 8 9 9 4 5 6 6 8 8 8 8 9 9 9 9 9 10 9 10 10 10 10 10 10 9 10 9 9 10 9 9 8 9 9 9 9 9 9 9 8 8 9 10 11 12
14 13 11 10 9 5 7 8 8 9 10 11 9 8 8 8 10 8 10 16 16 14 14 14 13 13 12 12 12 10 8 7 7 4 2 3 6 7 8 9 8 9 6 5 6 6 7 8 8 9 9 9 9 9 9 10 9 8 9 10 11 10 10 11 9 10 8 9 9 10 9 8 9 9 9 9 9 10 9 10 10 10 10 10 11
14 12 11 7 7 8 9 10 9 9 9 9 9 8 7 8 8 9 11 10 10 11 12 12 12 12 11 12 12 10 9 8 6 4 4 7 8 9 8 6 7 8 8 5 5 7 7 8 8 10 10 9 9 8 8 9 10 10 10 10 11 11 12 11 11 9 8 9 10 9 9 8 8 10 11 9 8 9 10 10 9 9 9 10 10
5 5 9 6 7 8 8 9 9 9 10 11 10 10 11 10 7 5 7 7 6 5 5 5 6 7 6 7 7 8 7 7 6 6 7 8 10 8 5 7 7 4 6 8 7 9 8 8 8 9 10 9 9 9 9 10 10 10 9 8 9 9 9 9 10 9 9 8 8 8 9 9 9 8 9 9 10 10 10 9 9 9 9 9 9
9 7 8 10 9 8 9 8 9 11 11 10 10 10 10 8 6 7 7 7 7 7 4 3 3 5 4 6 6 6 6 7 9 7 8 9 11 4 4 4 6 5 4 4 6 7 9 9 9 9 9 9 9 9 9 10 9 10 10 10 10 11 11 11 10 9 9 8 9 10 10 10 9 8 8 10 11 12 11 10 10 9 9 9 8
8 8 8 9 9 9 9 10 10 10 10 10 10 10 10 9 7 6 6 6 5 5 6 6 5 3 3 4 5 5 8 7 8 8 9 12 9 3 6 5 6 6 6 5 7 7 7 8 8 8 8 8 9 9 9 9 9 11 11 11 10 10 11 11 11 11 12 12 11 11 10 11 9 9 9 11 11 10 9 9 9 10 9 9 8
9 9 9 10 10 11 11 11 13 13 10 9 9 8 8 7 6 6 5 4 4 4 4 6 6 4 5 5 10 7 8 8 4 5 10 10 6 7 4 5 5 7 6 6 6 7 7 8 8 8 8 8 9 10 9 8 9 10 11 11 12 11 13 12 12 10 9 9 11 10 9 9 9 9 10 11 10 10 9 8 8 8 10 11 10
10 13 14 15 13 12 11 12 11 11 9 9 8 7 6 5 4 3 4 4 4 4 5 7 7 7 5 5 5 7 8 5 6 6 8 7 2 3 4 4 5 5 6 6 7 7 7 7 8 7 8 9 10 10 10 10 11 12 12 13 13 12 12 12 12 11 12 11 11 9 9 9 9 9 9 10 10 10 10 9 8 8 9 9 8
11 11 12 16 12 12 11 10 10 9 9 9 9 8 7 6 5 5 5 5 5 6 5 5 2 7 7 6 4 2 2 3 2 1 3 3 3 2 4 5 5 5 6 6 6 7 7 7 7 8 9 9 9 10 10 11 12 12 12 12 13 13 12 12 12 12 12 10 10 9 8 10 9 8 8 9 8 8 9 9 8 7 7 6 6
10 9 9 11 12 11 9 8 8 9 9 9 8 8 7 7 7 5 5 5 4 3 2 4 8 6 6 5 4 5 2 3 2 2 3 3 3 3 3 4 5 5 5 6 6 6 7 7 8 8 8 8 9 9 10 11 11 12 12 12 12 12 12 12 13 12 10 9 10 10 9 9 9 9 10 9 9 9 7 6 6 5 6 7 7
11 12 12 11 10 9 9 9 10 11 10 8 8 6 7 6 5 4 4 4 3 1 1 2 7 6 5 4 3 3 4 2 4 4 3 3 3 3 3 4 4 4 5 5 6 6 7 7 7 8 8 9 9 9 9 11 11 12 12 12 12 13 12 12 12 12 12 11 10 10 9 9 9 9 10 10 8 6 6 6 6 6 6 6 6
12 12 12 12 11 11 11 10 10 8 6 5 5 5 5 5 5 5 4 6 5 4 2 1 3 5 5 2 2 4 6 3 3 0 2 3 3 3 3 4 4 4 4 5 5 6 6 7 7 7 8 8 9 10 11 11 11 12 12 12 12 12 12 12 11 11 11 11 11 10 10 10 9 8 8 8 7 4 4 5 5 5 4 5 4
9 9 9 9 9 9 9 9 9 8 6 7 6 7 6 6 6 6 4 4 3 3 3 2 2 2 2 5 5 3 2 3 2 2 3 3 3 3 4 4 3 4 4 4 5 5 6 7 7 8 7 8 8 8 10 11 10 10 11 12 12 12 12 12 12 11 10 10 10 10 9 8 8 8 7 6 4 3 3 2 3 3 4 4 3
9 9 8 8 8 8 9 8 8 7 7 6 4 5 7 7 5 4 4 3 4 3 2 2 2 1 2 2 2 2 3 2 3 3 2 3 3 3 4 4 4 4 5 5 5 5 6 7 7 8 8 9 8 8 10 10 8 8 9 11 11 11 12 12 12 11 10 10 10 9 8 8 7 7 6 5 4 3 3 3 3 3 3 3 3
9 9 9 8 8 8 8 8 8 7 5 5 4 4 4 6 6 6 5 5 5 3 2 1 1 2 2 3 2 3 3 3 2 2 4 3 3 4 4 4 4 4 4 5 5 6 6 7 7 8 8 9 9 10 10 9 8 9 10 10 11 11 10 10 10 9 8 7 8 7 8 7 7 5 6 4 3 3 3 2 2 2 2 2 3
9 9 8 8 8 8 9 8 7 7 7 6 6 5 4 6 6 6 7 6 5 4 2 2 2 3 3 2 2 2 3 2 2 2 2 3 3 4 4 4 5 4 5 5 5 6 6 6 6 7 6 6 7 8 9 9 7 8 10 10 9 10 9 10 9 7 8 8 8 7 6 6 6 5 5 3 3 2 0 0 1 2 3 2 4
9 9 8 8 7 7 7 7 8 8 7 7 7 6 6 6 6 6 5 4 4 4 3 3 4 3 3 2 4 2 2 2 2 3 2 2 2 3 5 5 5 5 5 5 5 6 6 7 7 6 6 6 6 8 8 8 9 9 8 10 10 10 14 15 7 8 7 7 7 6 5 6 5 4 4 4 3 3 1 2 2 3 4 4 3
8 8 8 7 7 7 7 7 7 7 7 7 6 6 6 6 6 5 5 4 4 3 4 4 4 4 3 2 2 3 3 3 2 2 2 3 4 4 5 5 5 5 5 5 5 6 6 6 6 5 6 8 7 7 8 7 8 8 10 10 13 19 18 18 12 10 11 7 6 6 6 5 6 6 5 4 4 4 4 4 4 4 4 4 5
8 8 7 7 7 7 7 7 7 7 7 6 5 5 5 4 5 5 5 5 5 5 5 5 4 4 4 4 4 3 3 3 2 2 3 3 4 4 5 6 6 6 5 5 5 6 6 7 7 7 8 7 6 6 8 8 9 11 10 12 17 18 17 17 15 16 12 7 7 6 7 7 7 6 6 6 6 6 6 5 4 5 5 6 6
8 8 7 7 7 7 7 7 7 7 7 5 4 4 4 4 4 5 6 5 4 5 5 5 5 5 4 4 4 4 4 4 4 4 3 4 4 5 6 6 6 6 6 5 5 5 6 6 8 8 9 8 7 7 8 9 8 10 13 17 18 17 17 17 12 15 17 12 7 8 7 8 7 8 7 7 6 7 8 8 7 7 6 6 6
Wind_Direction
175 183 193 203 206 214 218 219 220 219 220 215 220 226 216 231 236 217 208 206 195 188 191 190 189 190 190 191 188 189 188 186 189 184 195 179 197 178 167 199 191 183 172 172 186 226 251 257 225 230 278 294 310 306 276 279 280 268 270 279 279 274 264 269 272 278 281 285 292 295 299 299 289 290 291 292 291 288 283 285 291 287 282 276 279
191 178 178 190 244 245 238 238 235 227 228 225 225 229 213 224 244 256 233 220 218 201 200 194 195 193 196 195 194 193 193 190 190 186 197 183 189 168 187 194 208 174 182 204 173 208 245 273 280 295 308 306 309 296 305 300 289 280 271 267 279 289 293 294 287 287 289 290 286 290 290 289 286 284 281 281 283 286 282 279 278 275 269 273 270
143 172 185 187 199 224 271 261 247 238 231 233 234 235 230 216 218 242 242 237 231 212 211 207 202 198 199 200 198 198 196 194 192 192 195 185 184 181 190 196 195 181 199 208 213 176 213 222 253 227 245 275 285 284 289 284 289 298 300 299 292 289 287 284 289 286 288 289 291 286 285 288 284 286 285 285 282 282 284 284 284 282 281 278 275
92 97 150 169 185 188 205 233 259 252 242 238 244 253 252 231 222 221 234 216 242 240 223 217 209 208 205 204 202 200 199 197 192 195 195 187 187 186 189 191 191 196 204 202 213 191 224 232 245 237 248 264 277 300 295 288 283 290 297 291 285 284 275 262 254 265 277 284 283 286 290 294 288 284 282 282 281 272 270 274 271 273 277 275 276
65 149 166 133 235 189 200 217 225 255 273 278 335 331 292 279 251 223 226 221 222 252 249 235 222 215 214 209 207 203 202 200 194 194 193 188 190 188 189 189 192 198 199 201 172 228 214 235 265 290 276 278 280 274 301 322 312 307 305 302 292 292 286 285 289 285 285 284 288 286 287 282 282 282 281 282 282 280 277 275 278 281 280 284 288
81 67 63 165 190 218 222 213 218 217 218 204 186 241 253 251 256 269 250 230 217 221 236 243 235 225 218 217 215 210 205 204 197 194 193 188 190 188 189 189 190 195 188 197 198 201 214 240 240 250 276 278 289 306 306 306 310 304 303 304 305 305 300 294 286 280 279 278 282 287 282 287 288 283 285 281 280 282 279 278 280 280 281 278 276
83 89 83 68 82 190 194 230 243 243 253 275 249 237 241 233 199 225 239 238 232 234 226 231 243 238 227 222 222 220 216 218 207 196 193 186 190 184 187 189 191 193 187 195 195 193 198 213 218 241 257 270 284 294 307 308 298 297 293 292 291 288 290 289 287 287 284 283 283 281 281 275 273 281 279 282 282 278 278 278 274 270 267 271 275
54 54 58 76 61 36 18 335 273 250 233 222 234 240 245 247 229 231 229 225 233 234 237 236 221 239 234 230 224 222 219 217 216 203 193 185 186 182 184 188 190 187 188 194 191 186 199 206 212 212 226 230 2 338 321 300 307 300 298 299 297 295 291 291 289 284 281 280 280 284 283 286 281 275 279 277 276 276 274 279 283 287 287 290 289
52 54 66 37 7 336 343 344 291 270 265 276 251 229 228 233 247 245 245 241 237 241 245 244 245 237 233 234 229 221 221 217 217 205 192 184 182 178 184 189 190 184 187 195 187 192 197 201 194 219 108 83 76 330 305 319 300 285 289 290 289 290 287 285 286 284 282 282 282 279 280 279 278 280 279 278 276 282 297 305 298 294 289 282 276
27 20 357 39 345 330 321 313 304 326 303 277 263 261 260 256 248 244 245 250 248 245 246 249 241 241 239 233 233 227 220 223 194 192 187 178 175 183 184 187 188 183 187 188 186 198 200 194 204 122 120 174 211 231 241 246 236 255 280 292 296 296 294 291 286 285 286 285 283 285 283 280 283 284 284 286 290 290 285 281 280 283 283 281 278
5 348 342 345 327 304 300 305 302 290 304 300 291 282 277 276 269 269 257 242 244 247 246 242 241 242 240 229 233 229 230 222 148 170 161 167 182 181 178 179 182 189 189 189 192 196 199 206 207 156 180 196 214 215 224 222 229 234 236 249 267 276 288 286 282 284 285 282 282 282 281 282 283 285 286 288 285 283 283 284 283 285 283 283 283
332 321 321 321 313 317 316 308 297 303 295 287 289 291 295 290 279 264 261 254 242 241 244 243 246 241 233 239 245 237 203 131 162 159 158 169 177 175 173 181 182 184 193 193 198 203 206 208 221 229 218 231 251 219 214 220 225 225 229 234 234 239 240 250 269 277 277 278 277 275 279 277 283 286 286 288 291 293 291 290 287 287 286 283 285
326 325 312 314 319 315 310 303 302 298 296 296 303 296 277 272 272 273 263 256 256 247 242 236 234 238 232 226 228 187 183 138 142 148 144 146 154 168 178 181 182 191 191 191 201 199 213 229 238 226 240 157 204 239 261 241 212 223 229 228 233 231 233 236 243 251 263 268 272 273 272 281 282 281 289 298 307 296 293 282 279 281 279 278 277
296 304 305 301 304 303 294 295 294 292 290 286 283 282 277 273 273 264 264 259 248 249 245 240 237 231 230 227 217 203 142 152 146 147 141 135 148 170 192 178 183 187 184 186 200 213 221 237 243 246 253 247 259 266 275 275 302 273 244 238 241 229 225 233 235 236 240 251 263 271 276 279 278 283 292 301 296 289 290 285 289 286 283 281 288
301 295 293 298 298 293 289 293 294 296 295 290 284 279 280 276 270 266 259 250 247 245 243 241 235 229 225 227 224 206 137 158 149 146 145 137 128 92 193 158 183 179 193 198 217 227 235 239 252 262 265 265 274 355 295 295 296 292 291 292 287 287 280 249 226 227 235 238 248 257 267 270 269 271 278 295 310 322 319 314 310 302 301 300 291
288 290 296 295 290 289 285 285 287 285 284 283 281 283 281 276 269 266 264 260 253 247 244 242 235 228 225 218 206 121 143 156 148 143 141 137 131 182 158 151 185 195 207 215 215 230 231 231 241 249 260 268 92 91 55 303 289 291 290 288 288 285 279 271 271 272 265 259 252 249 254 265 289 299 297 291 295 298 302 300 299 295 291 280 272
283 286 280 282 284 286 284 278 276 280 281 280 278 277 278 279 274 266 264 258 254 249 248 245 242 236 226 221 173 133 141 157 144 141 140 144 158 173 161 172 197 202 215 224 228 235 239 242 249 259 262 278 115 124 122 208 274 287 289 288 287 286 282 282 266 249 244 251 257 264 273 276 273 271 275 273 261 275 284 282 273 277 273 273 274
281 284 286 286 286 279 277 280 282 281 282 280 283 282 278 277 275 266 260 263 257 250 250 250 252 245 227 211 152 143 141 144 146 144 149 165 189 178 169 194 202 217 220 229 245 248 250 202 238 259 265 269 130 143 144 193 271 288 291 289 288 286 287 289 286 280 261 237 239 243 244 247 252 256 259 261 260 247 254 260 266 266 264 264 270
275 277 283 288 286 285 282 284 284 282 280 281 281 279 275 272 272 268 262 257 259 263 253 247 242 239 235 154 120 130 132 140 153 153 164 174 213 236 186 210 207 222 237 248 247 260 273 223 197 220 243 270 122 139 151 255 283 286 286 288 287 286 287 292 289 287 286 294 292 269 251 242 244 250 253 249 249 249 252 262 268 254 257 259 263
272 275 276 277 278 276 274 271 272 273 276 278 277 275 275 273 269 267 269 265 263 262 256 238 173 115 92 105 115 118 126 137 156 161 163 169 7 340 285 243 260 259 270 272 290 286 281 281 270 100 68 68 65 57 40 25 302 291 290 282 284 283 292 292 300 308 305 303 293 289 288 292 290 279 267 260 243 227 236 249 255 254 256 257 257
268 272 275 275 274 274 274 274 274 275 276 276 274 273 270 268 265 261 261 259 265 267 250 234 133 107 104 106 114 122 132 142 148 152 148 122 55 343 35 299 302 296 293 293 280 285 282 291 72 82 76 59 65 10 2 248 260 279 279 275 276 307 326 301 294 291 286 285 283 282 281 279 274 269 266 265 265 263 249 227 227 243 253 258 257
269 271 271 269 268 269 269 268 270 272 276 275 273 267 265 263 262 259 254 252 247 77 87 97 103 98 100 107 114 125 128 129 143 143 129 113 91 12 330 39 30 339 310 285 281 276 291 291 2 112 120 145 158 218 231 246 240 260 268 273 293 300 293 286 286 285 279 278 277 276 275 272 269 266 265 263 262 258 256 257 249 249 247 246 251
268 270 270 272 272 270 268 265 262 261 262 262 261 261 259 260 257 249 256 231 162 130 121 113 110 114 116 116 113 115 123 127 138 141 143 146 171 151 306 307 92 294 278 282 285 287 286 290 141 93 351 347 337 325 308 291 281 277 282 277 272 270 268 277 280 277 272 269 268 269 269 266 265 265 264 266 264 260 260 257 257 255 252 249 250
267 268 267 269 271 268 266 263 260 257 258 258 258 253 250 252 259 250 228 201 197 204 181 137 130 138 140 132 126 117 118 135 143 148 164 170 174 200 188 192 237 277 303 295 290 291 287 294 344 347 332 322 301 282 273 270 271 272 270 273 272 272 272 280 275 272 270 269 269 268 266 264 265 266 266 268 267 265 261 259 260 258 258 257 254
261 260 263 264 263 262 261 261 262 263 264 263 264 261 258 253 236 177 208 194 178 189 176 159 146 142 137 136 135 135 128 135 151 161 170 191 195 197 202 207 214 212 246 275 287 294 309 312 297 295 297 281 272 268 265 254 249 254 259 261 262 265 272 276 273 272 270 268 266 263 260 260 261 265 270 272 275 277 276 276 272 265 262 261 260
260 261 262 262 261 263 264 263 262 262 262 263 266 269 274 169 217 211 203 205 198 190 173 164 150 136 137 143 142 139 139 143 159 173 189 195 201 204 210 211 213 209 224 263 280 291 292 294 291 279 269 261 259 272 303 313 311 292 280 271 266 266 267 274 272 269 269 270 267 267 268 269 266 264 262 262 262 262 264 264 260 257 255 255 258
258 257 257 260 262 263 266 266 266 263 263 261 261 255 201 205 208 207 201 199 185 175 161 155 146 146 136 135 138 143 148 150 166 175 191 197 203 201 215 224 221 226 231 244 243 251 282 302 303 288 276 276 275 276 267 266 266 263 263 265 273 277 279 280 283 284 282 281 275 271 271 271 271 268 268 267 266 265 260 258 259 259 260 257 253
259 257 256 256 259 259 257 258 263 266 263 257 241 211 195 195 190 178 193 186 174 166 159 149 147 148 136 130 140 144 143 152 128 112 76 34 3 335 313 336 351 319 350 3 347 326 314 293 269 260 265 262 269 293 305 301 301 304 298 298 295 293 287 279 273 276 275 274 273 275 274 275 272 271 270 263 263 263 259 257 256 256 252 256 256
254 254 254 256 255 253 257 262 258 252 232 117 70 41 251 197 165 177 167 183 172 157 136 128 129 125 136 141 136 145 143 110 76 65 74 58 36 6 354 10 2 336 24 6 332 313 304 287 290 302 305 310 306 302 304 302 302 302 301 299 300 298 294 293 292 289 289 287 285 287 291 292 284 278 270 267 263 261 260 261 259 259 254 244 249
248 247 248 250 250 249 248 251 252 215 132 118 99 75 40 41 70 131 101 92 81 69 85 116 110 94 72 54 40 106 101 105 126 91 76 63 57 38 20 344 334 310 310 307 294 297 287 299 314 317 316 314 310 306 303 304 304 304 303 303 297 294 292 291 286 284 283 284 285 286 282 280 277 275 272 271 269 265 260 253 257 251 252 243 243
250 247 242 244 246 248 238 14 87 135 145 143 125 109 92 49 35 54 94 91 85 79 77 81 89 97 102 97 75 86 107 112 94 82 74 70 27 352 288 272 274 275 283 308 297 306 316 319 323 323 319 314 311 307 305 304 303 302 303 303 297 291 286 285 284 284 284 283 280 277 274 270 270 269 269 264 263 264 265 254 249 244 244 245 242
248 246 243 242 237 231 213 172 148 158 157 151 129 125 118 112 79 41 57 74 73 76 78 79 86 96 104 109 110 90 82 90 101 109 108 125 241 242 263 266 264 268 276 281 287 279 311 331 322 317 316 309 307 306 306 305 305 304 301 299 298 298 298 293 292 292 289 286 282 276 273 271 269 267 265 264 262 262 257 254 246 246 245 243 245
245 243 242 238 230 184 138 136 148 141 142 140 126 125 129 121 112 102 63 62 67 69 75 80 79 81 83 78 84 100 117 122 123 116 156 234 243 251 255 260 261 265 301 287 259 295 328 327 325 318 316 312 311 310 309 306 304 302 299 298 298 296 293 292 293 289 284 281 280 277 273 267 266 267 265 261 260 262 256 253 250 244 242 242 243
244 244 238 216 193 176 157 144 141 143 134 117 112 110 94 97 113 121 122 117 92 69 57 67 80 83 79 96 106 112 121 132 133 148 200 241 244 251 250 262 262 243 231 269 291 317 328 329 324 321 314 313 311 309 306 304 305 303 301 297 295 295 294 295 294 290 286 284 280 278 274 266 263 266 266 262 251 250 249 248 246 244 242 241 245
225 111 119 141 164 143 136 134 138 132 121 126 132 128 117 112 98 96 107 107 112 124 133 95 62 64 104 108 115 122 140 146 159 181 223 252 262 269 315 284 267 218 203 227 284 334 329 324 320 318 316 314 314 311 308 307 307 304 302 299 297 296 295 293 290 288 286 283 279 276 274 271 266 261 262 262 263 262 261 258 251 241 243 243 242
142 136 125 123 121 126 130 133 130 130 136 127 113 106 113 116 137 133 116 114 121 130 136 137 139 84 78 102 141 156 166 178 184 196 227 243 260 276 282 295 343 344 343 329 334 331 333 322 323 320 320 317 314 313 310 309 308 307 307 306 302 298 297 294 291 289 286 283 280 277 274 271 265 261 260 261 256 255 256 254 256 252 242 239 237
128 127 128 125 125 122 122 126 126 119 107 107 115 125 133 136 131 125 122 124 131 138 136 145 141 138 193 181 175 201 212 203 200 218 239 246 258 287 268 313 340 345 342 340 337 336 326 329 325 325 322 320 316 315 316 312 310 308 307 305 302 299 295 294 292 289 288 287 284 280 276 274 267 265 263 265 264 259 254 252 248 247 244 236 232
100 109 112 114 115 118 119 116 114 109 110 115 125 130 129 124 126 128 137 144 151 152 146 154 175 182 187 192 182 194 208 207 206 238 252 266 271 243 283 346 342 344 340 333 338 334 331 330 330 323 322 319 319 317 315 311 311 310 307 306 304 302 296 293 288 283 281 280 285 283 277 271 271 268 269 265 263 263 257 249 242 241 240 232 230
91 98 108 118 118 118 117 118 117 121 126 129 123 118 119 127 138 145 151 159 175 178 178 174 194 202 190 164 174 205 217 201 205 220 219 231 274 11 337 336 345 339 339 336 335 338 333 330 331 328 323 322 321 320 318 316 315 311 310 307 305 305 303 299 296 294 292 289 289 284 278 276 274 273 268 268 266 260 258 252 240 237 236 233 218
99 94 89 95 99 103 109 112 118 126 131 133 137 141 148 155 164 175 174 178 191 194 176 191 149 73 55 49 29 352 295 323 324 326 349 2 348 346 327 344 346 344 337 340 338 334 335 333 333 330 326 324 326 323 321 319 315 312 309 308 308 306 303 300 298 297 296 292 285 279 275 278 276 274 274 271 266 259 253 247 241 223 222 220 221
93 91 94 99 106 112 117 133 144 148 146 145 144 152 152 168 174 180 180 180 188 176 185 111 81 72 57 52 39 2 319 295 322 349 348 355 350 333 342 346 340 337 339 338 340 335 336 337 333 331 330 330 329 327 322 318 317 314 312 309 308 304 302 300 300 298 295 289 289 287 283 283 281 280 279 274 266 263 250 236 231 227 215 216 217
104 107 114 125 137 146 152 143 136 136 134 139 147 145 153 176 178 175 161 179 155 145 130 91 84 84 76 34 33 317 278 299 14 353 359 355 342 338 330 326 343 344 343 341 338 340 340 337 334 332 333 333 331 327 320 318 320 321 319 313 309 307 305 304 302 299 297 295 294 289 290 290 285 280 272 269 265 253 234 232 226 224 215 211 211
109 120 125 132 127 124 118 114 114 107 100 101 98 116 140 137 116 88 74 49 57 48 51 64 91 105 101 125 187 241 250 242 115 344 21 348 332 331 319 326 346 351 343 342 341 349 347 337 334 335 334 333 333 330 324 320 317 318 318 314 311 308 306 303 303 302 300 297 296 294 290 287 286 285 287 289 279 260 243 237 240 230 220 209 207
83 77 78 80 76 73 68 74 72 74 71 64 58 58 68 74 74 79 80 68 61 58 57 46 39 40 122 171 204 238 329 348 5 348 355 322 323 323 317 342 350 345 342 342 350 357 340 338 336 333 335 330 334 327 321 321 321 318 320 318 312 309 306 304 304 302 301 298 297 296 293 290 293 296 295 297 300 282 275 262 246 234 218 213 201
71 72 76 77 76 79 79 82 88 92 94 91 85 78 70 71 69 63 66 73 71 68 73 63 53 42 25 31 30 10 325 355 11 352 325 324 314 324 337 345 345 345 339 348 357 346 340 341 337 333 333 330 329 326 325 323 317 317 318 317 314 310 308 306 301 297 294 289 293 296 297 300 303 306 308 311 308 294 274 248 236 230 225 211 188
62 62 62 66 72 77 78 76 72 73 76 79 83 78 73 70 68 60 56 56 44 35 40 35 55 52 32 21 350 18 8 358 333 343 332 326 330 325 329 346 344 331 339 351 350 346 348 340 336 334 332 331 330 325 326 321 313 316 317 321 315 309 308 307 302 294 289 292 294 295 301 304 304 303 304 305 306 300 287 267 218 197 172 148 146
60 66 64 68 67 67 64 64 65 70 70 65 66 66 67 67 73 81 71 58 47 26 22 29 23 37 24 36 10 2 343 338 345 326 330 326 321 323 333 335 337 333 341 350 352 350 348 341 340 332 332 338 329 321 326 322 304 307 326 328 320 320 313 315 309 296 300 303 307 315 312 308 315 320 320 333 327 315 334 127 128 121 116 118 117
60 58 58 61 65 71 80 87 89 83 78 71 66 65 65 70 73 65 62 70 56 37 41 42 38 43 27 10 355 5 360 338 334 329 328 319 347 346 344 337 337 338 336 350 359 352 345 346 340 328 338 344 333 335 328 319 321 326 328 332 331 326 329 330 315 326 323 321 323 325 319 326 350 349 349 353 3 347 58 98 98 88 98 103 95
59 60 61 57 63 68 73 70 69 72 76 78 75 71 64 60 56 57 62 59 57 53 49 38 36 30 26 35 360 354 5 339 341 337 335 342 351 345 345 343 335 330 335 355 351 351 348 345 324 331 348 348 341 332 324 318 323 330 337 340 336 335 340 341 340 348 344 337 338 343 347 355 357 2 2 10 18 20 26 56 81 84 80 87 95
58 57 63 63 68 67 66 66 70 73 71 73 73 73 69 67 63 62 57 48 43 34 24 29 32 30 24 15 10 360 1 349 351 339 340 345 354 352 345 341 335 332 338 349 349 351 351 346 335 350 350 351 350 347 335 329 335 341 342 337 337 344 346 347 349 357 2 359 352 1 0 7 7 11 11 17 26 36 43 48 61 74 80 91 92
60 58 59 56 59 62 64 66 63 62 63 67 70 71 67 62 58 52 46 46 42 37 33 27 26 21 14 12 5 0 7 355 353 344 343 349 357 355 348 340 333 339 327 342 356 351 352 344 345 353 355 352 354 356 346 341 340 340 338 341 345 348 350 355 359 360 3 6 8 4 7 13 17 20 21 27 36 43 52 50 52 58 68 76 89